Year,Month,Day,Hour,Minute,Value (Times are PST for temperature in C)
2015,07,18,00,00,15.00
2015,07,18,00,01,15.00
2015,07,18,00,02,15.00
2015,07,18,00,03,15.00
2015,07,18,00,04,15.00
2015,07,18,00,05,15.00
2015,07,18,00,06,15.00
2015,07,18,00,07,15.00
2015,07,18,00,08,15.00
2015,07,18,00,09,15.00
2015,07,18,00,10,15.00
2015,07,18,00,11,15.00
2015,07,18,00,12,14.90
2015,07,18,00,13,14.90
2015,07,18,00,14,14.90
2015,07,18,00,15,14.90
2015,07,18,00,16,14.90
2015,07,18,00,17,14.90
2015,07,18,00,18,14.90
2015,07,18,00,19,14.90
2015,07,18,00,20,14.90
2015,07,18,00,21,14.80
2015,07,18,00,22,14.80
2015,07,18,00,23,14.80
2015,07,18,00,24,14.80
2015,07,18,00,25,14.80
2015,07,18,00,26,14.80
2015,07,18,00,27,14.80
2015,07,18,00,28,14.80
2015,07,18,00,29,14.80
2015,07,18,00,30,14.80
2015,07,18,00,31,14.80
2015,07,18,00,32,14.80
2015,07,18,00,33,14.80
2015,07,18,00,34,14.80
2015,07,18,00,35,14.80
2015,07,18,00,36,14.80
2015,07,18,00,37,14.80
2015,07,18,00,38,14.80
2015,07,18,00,39,14.80
2015,07,18,00,40,14.80
2015,07,18,00,41,14.80
2015,07,18,00,42,14.80
2015,07,18,00,43,14.80
2015,07,18,00,44,14.80
2015,07,18,00,45,14.80
2015,07,18,00,46,14.80
2015,07,18,00,47,14.70
2015,07,18,00,48,14.70
2015,07,18,00,49,14.70
2015,07,18,00,50,14.70
2015,07,18,00,51,14.70
2015,07,18,00,52,14.70
2015,07,18,00,53,14.70
2015,07,18,00,54,14.70
2015,07,18,00,55,14.70
2015,07,18,00,56,14.70
2015,07,18,00,57,14.70
2015,07,18,00,58,14.70
2015,07,18,00,59,14.70
2015,07,18,01,00,14.70
2015,07,18,01,01,14.70
2015,07,18,01,02,14.60
2015,07,18,01,03,14.60
2015,07,18,01,04,14.60
2015,07,18,01,05,14.60
2015,07,18,01,06,14.60
2015,07,18,01,07,14.60
2015,07,18,01,08,14.60
2015,07,18,01,09,14.60
2015,07,18,01,10,14.60
2015,07,18,01,11,14.60
2015,07,18,01,12,14.60
2015,07,18,01,13,14.60
2015,07,18,01,14,14.60
2015,07,18,01,15,14.60
2015,07,18,01,16,14.60
2015,07,18,01,17,14.60
2015,07,18,01,18,14.60
2015,07,18,01,19,14.60
2015,07,18,01,20,14.60
2015,07,18,01,21,14.60
2015,07,18,01,22,14.60
2015,07,18,01,23,14.60
2015,07,18,01,24,14.60
2015,07,18,01,25,14.60
2015,07,18,01,26,14.60
2015,07,18,01,27,14.60
2015,07,18,01,28,14.60
2015,07,18,01,29,14.60
2015,07,18,01,30,14.60
2015,07,18,01,31,14.60
2015,07,18,01,32,14.60
2015,07,18,01,33,14.60
2015,07,18,01,34,14.60
2015,07,18,01,35,14.60
2015,07,18,01,36,14.60
2015,07,18,01,37,14.60
2015,07,18,01,38,14.60
2015,07,18,01,39,14.60
2015,07,18,01,40,14.60
2015,07,18,01,41,14.60
2015,07,18,01,42,14.60
2015,07,18,01,43,14.60
2015,07,18,01,44,14.60
2015,07,18,01,45,14.60
2015,07,18,01,46,14.60
2015,07,18,01,47,14.60
2015,07,18,01,48,14.50
2015,07,18,01,49,14.50
2015,07,18,01,50,14.50
2015,07,18,01,51,14.50
2015,07,18,01,52,14.50
2015,07,18,01,53,14.50
2015,07,18,01,54,14.50
2015,07,18,01,55,14.60
2015,07,18,01,56,14.60
2015,07,18,01,57,14.60
2015,07,18,01,58,14.60
2015,07,18,01,59,14.60
2015,07,18,02,00,14.60
2015,07,18,02,01,14.60
2015,07,18,02,02,14.60
2015,07,18,02,03,14.60
2015,07,18,02,04,14.60
2015,07,18,02,05,14.60
2015,07,18,02,06,14.60
2015,07,18,02,07,14.60
2015,07,18,02,08,14.60
2015,07,18,02,09,14.60
2015,07,18,02,10,14.60
2015,07,18,02,11,14.60
2015,07,18,02,12,14.60
2015,07,18,02,13,14.60
2015,07,18,02,14,14.60
2015,07,18,02,15,14.60
2015,07,18,02,16,14.60
2015,07,18,02,17,14.50
2015,07,18,02,18,14.50
2015,07,18,02,19,14.50
2015,07,18,02,20,14.50
2015,07,18,02,21,14.50
2015,07,18,02,22,14.50
2015,07,18,02,23,14.50
2015,07,18,02,24,14.50
2015,07,18,02,25,14.50
2015,07,18,02,26,14.50
2015,07,18,02,27,14.50
2015,07,18,02,28,14.50
2015,07,18,02,29,14.50
2015,07,18,02,30,14.50
2015,07,18,02,31,14.50
2015,07,18,02,32,14.50
2015,07,18,02,33,14.50
2015,07,18,02,34,14.50
2015,07,18,02,35,14.50
2015,07,18,02,36,14.50
2015,07,18,02,37,14.50
2015,07,18,02,38,14.50
2015,07,18,02,39,14.50
2015,07,18,02,40,14.50
2015,07,18,02,41,14.50
2015,07,18,02,42,14.50
2015,07,18,02,43,14.50
2015,07,18,02,44,14.50
2015,07,18,02,45,14.50
2015,07,18,02,46,14.50
2015,07,18,02,47,14.50
2015,07,18,02,48,14.50
2015,07,18,02,49,14.50
2015,07,18,02,50,14.40
2015,07,18,02,51,14.40
2015,07,18,02,52,14.40
2015,07,18,02,53,14.40
2015,07,18,02,54,14.40
2015,07,18,02,55,14.40
2015,07,18,02,56,14.40
2015,07,18,02,57,14.40
2015,07,18,02,58,14.40
2015,07,18,02,59,14.40
2015,07,18,03,00,14.40
2015,07,18,03,01,14.40
2015,07,18,03,02,14.40
2015,07,18,03,03,14.40
2015,07,18,03,04,14.40
2015,07,18,03,05,14.40
2015,07,18,03,06,14.40
2015,07,18,03,07,14.40
2015,07,18,03,08,14.40
2015,07,18,03,09,14.40
2015,07,18,03,10,14.40
2015,07,18,03,11,14.40
2015,07,18,03,12,14.40
2015,07,18,03,13,14.40
2015,07,18,03,14,14.40
2015,07,18,03,15,14.40
2015,07,18,03,16,14.40
2015,07,18,03,17,14.40
2015,07,18,03,18,14.40
2015,07,18,03,19,14.40
2015,07,18,03,20,14.40
2015,07,18,03,21,14.40
2015,07,18,03,22,14.40
2015,07,18,03,23,14.30
2015,07,18,03,24,14.30
2015,07,18,03,25,14.30
2015,07,18,03,26,14.30
2015,07,18,03,27,14.30
2015,07,18,03,28,14.30
2015,07,18,03,29,14.30
2015,07,18,03,30,14.30
2015,07,18,03,31,14.30
2015,07,18,03,32,14.30
2015,07,18,03,33,14.30
2015,07,18,03,34,14.30
2015,07,18,03,35,14.30
2015,07,18,03,36,14.30
2015,07,18,03,37,14.30
2015,07,18,03,38,14.30
2015,07,18,03,39,14.20
2015,07,18,03,40,14.20
2015,07,18,03,41,14.20
2015,07,18,03,42,14.20
2015,07,18,03,43,14.20
2015,07,18,03,44,14.20
2015,07,18,03,45,14.20
2015,07,18,03,46,14.20
2015,07,18,03,47,14.20
2015,07,18,03,48,14.20
2015,07,18,03,49,14.20
2015,07,18,03,50,14.20
2015,07,18,03,51,14.10
2015,07,18,03,52,14.10
2015,07,18,03,53,14.10
2015,07,18,03,54,14.10
2015,07,18,03,55,14.10
2015,07,18,03,56,14.10
2015,07,18,03,57,14.10
2015,07,18,03,58,14.10
2015,07,18,03,59,14.00
2015,07,18,04,00,14.00
2015,07,18,04,01,14.00
2015,07,18,04,02,14.00
2015,07,18,04,03,14.00
2015,07,18,04,04,14.00
2015,07,18,04,05,14.00
2015,07,18,04,06,14.00
2015,07,18,05,02,14.10
2015,07,18,05,03,14.10
2015,07,18,05,04,14.10
2015,07,18,05,05,14.10
2015,07,18,05,06,14.10
2015,07,18,05,07,14.10
2015,07,18,05,08,14.10
2015,07,18,05,09,14.10
2015,07,18,05,10,14.10
2015,07,18,05,11,14.10
2015,07,18,05,12,14.10
2015,07,18,05,13,14.10
2015,07,18,05,14,14.20
2015,07,18,05,15,14.20
2015,07,18,05,16,14.20
2015,07,18,05,17,14.20
2015,07,18,05,18,14.20
2015,07,18,05,19,14.20
2015,07,18,05,20,14.20
2015,07,18,05,21,14.20
2015,07,18,05,22,14.20
2015,07,18,05,23,14.20
2015,07,18,05,24,14.20
2015,07,18,05,25,14.20
2015,07,18,05,26,14.20
2015,07,18,05,27,14.20
2015,07,18,05,28,14.20
2015,07,18,05,29,14.20
2015,07,18,05,30,14.20
2015,07,18,05,31,14.20
2015,07,18,05,32,14.20
2015,07,18,05,33,14.30
2015,07,18,05,34,14.30
2015,07,18,05,35,14.30
2015,07,18,05,36,14.30
2015,07,18,05,37,14.30
2015,07,18,05,38,14.30
2015,07,18,05,39,14.30
2015,07,18,05,40,14.30
2015,07,18,05,41,14.30
2015,07,18,05,42,14.30
2015,07,18,05,43,14.30
2015,07,18,05,44,14.40
2015,07,18,05,45,14.40
2015,07,18,05,46,14.40
2015,07,18,05,47,14.40
2015,07,18,05,48,14.40
2015,07,18,05,49,14.40
2015,07,18,05,50,14.40
2015,07,18,05,51,14.40
2015,07,18,05,52,14.40
2015,07,18,05,53,14.40
2015,07,18,05,54,14.40
2015,07,18,05,55,14.40
2015,07,18,05,56,14.40
2015,07,18,05,57,14.40
2015,07,18,05,58,14.40
2015,07,18,05,59,14.40
2015,07,18,06,00,14.40
2015,07,18,06,01,14.40
2015,07,18,06,02,14.50
2015,07,18,06,03,14.50
2015,07,18,06,04,14.50
2015,07,18,06,05,14.50
2015,07,18,06,06,14.50
2015,07,18,06,07,14.50
2015,07,18,06,08,14.50
2015,07,18,06,09,14.50
2015,07,18,06,10,14.50
2015,07,18,06,11,14.50
2015,07,18,06,12,14.50
2015,07,18,06,13,14.50
2015,07,18,06,14,14.50
2015,07,18,06,15,14.50
2015,07,18,06,16,14.50
2015,07,18,06,17,14.60
2015,07,18,06,18,14.60
2015,07,18,06,19,14.60
2015,07,18,06,20,14.60
2015,07,18,06,21,14.60
2015,07,18,06,22,14.60
2015,07,18,06,23,14.60
2015,07,18,06,24,14.60
2015,07,18,06,25,14.60
2015,07,18,06,26,14.70
2015,07,18,06,27,14.70
2015,07,18,06,28,14.70
2015,07,18,06,29,14.70
2015,07,18,06,30,14.70
2015,07,18,06,31,14.70
2015,07,18,06,32,14.60
2015,07,18,06,33,14.60
2015,07,18,06,34,14.70
2015,07,18,06,35,14.70
2015,07,18,06,36,14.70
2015,07,18,06,37,14.70
2015,07,18,06,38,14.70
2015,07,18,06,39,14.70
2015,07,18,06,40,14.70
2015,07,18,06,41,14.70
2015,07,18,06,42,14.70
2015,07,18,06,43,14.70
2015,07,18,06,44,14.70
2015,07,18,06,45,14.70
2015,07,18,06,46,14.70
2015,07,18,06,47,14.70
2015,07,18,06,48,14.70
2015,07,18,06,49,14.70
2015,07,18,06,50,14.70
2015,07,18,06,51,14.70
2015,07,18,06,52,14.70
2015,07,18,06,53,14.70
2015,07,18,06,54,14.70
2015,07,18,06,55,14.70
2015,07,18,06,56,14.70
2015,07,18,06,57,14.60
2015,07,18,06,58,14.60
2015,07,18,06,59,14.60
2015,07,18,07,00,14.70
2015,07,18,07,01,14.70
2015,07,18,07,02,14.70
2015,07,18,07,03,14.70
2015,07,18,07,04,14.70
2015,07,18,07,05,14.70
2015,07,18,07,06,14.70
2015,07,18,07,07,14.70
2015,07,18,07,08,14.80
2015,07,18,07,09,14.80
2015,07,18,07,10,14.80
2015,07,18,07,11,14.80
2015,07,18,07,12,14.80
2015,07,18,07,13,14.90
2015,07,18,07,14,14.90
2015,07,18,07,15,14.90
2015,07,18,07,16,14.90
2015,07,18,07,17,14.90
2015,07,18,07,18,15.00
2015,07,18,07,19,15.00
2015,07,18,07,20,15.00
2015,07,18,07,21,15.00
2015,07,18,07,22,15.00
2015,07,18,07,23,15.10
2015,07,18,07,24,15.10
2015,07,18,07,25,15.10
2015,07,18,07,26,15.10
2015,07,18,07,27,15.10
2015,07,18,07,28,15.10
2015,07,18,07,29,15.10
2015,07,18,07,30,15.10
2015,07,18,07,31,15.20
2015,07,18,07,32,15.20
2015,07,18,07,33,15.20
2015,07,18,07,34,15.20
2015,07,18,07,35,15.20
2015,07,18,07,36,15.20
2015,07,18,07,37,15.20
2015,07,18,07,38,15.30
2015,07,18,07,39,15.20
2015,07,18,07,40,15.20
2015,07,18,07,41,15.20
2015,07,18,07,42,15.20
2015,07,18,07,43,15.20
2015,07,18,07,44,15.20
2015,07,18,07,45,15.20
2015,07,18,07,46,15.30
2015,07,18,07,47,15.30
2015,07,18,07,48,15.30
2015,07,18,07,49,15.30
2015,07,18,07,50,15.40
2015,07,18,07,51,15.40
2015,07,18,07,52,15.40
2015,07,18,07,53,15.50
2015,07,18,07,54,15.60
2015,07,18,07,55,15.60
2015,07,18,07,56,15.70
2015,07,18,07,57,15.80
2015,07,18,07,58,15.90
2015,07,18,07,59,16.00
2015,07,18,08,00,16.10
2015,07,18,08,01,16.10
2015,07,18,08,02,16.20
2015,07,18,08,03,16.20
2015,07,18,08,04,16.20
2015,07,18,08,05,16.30
2015,07,18,08,06,16.30
2015,07,18,08,07,16.30
2015,07,18,08,08,16.30
2015,07,18,08,09,16.40
2015,07,18,08,10,16.50
2015,07,18,08,11,16.60
2015,07,18,08,12,16.70
2015,07,18,08,13,16.80
2015,07,18,08,14,16.80
2015,07,18,08,15,16.90
2015,07,18,08,16,16.90
2015,07,18,08,17,17.00
2015,07,18,08,18,17.00
2015,07,18,08,19,17.10
2015,07,18,08,20,17.10
2015,07,18,08,21,17.20
2015,07,18,08,22,17.20
2015,07,18,08,23,17.30
2015,07,18,08,24,17.40
2015,07,18,08,25,17.40
2015,07,18,08,26,17.50
2015,07,18,08,27,17.50
2015,07,18,08,28,17.60
2015,07,18,08,29,17.70
2015,07,18,08,30,17.80
2015,07,18,08,31,17.80
2015,07,18,08,32,17.80
2015,07,18,08,33,17.90
2015,07,18,08,34,17.90
2015,07,18,08,35,18.00
2015,07,18,08,36,18.00
2015,07,18,08,37,18.00
2015,07,18,08,38,18.00
2015,07,18,08,39,18.10
2015,07,18,08,40,18.10
2015,07,18,08,41,18.10
2015,07,18,08,42,18.10
2015,07,18,08,43,18.10
2015,07,18,08,44,18.20
2015,07,18,08,45,18.20
2015,07,18,08,46,18.20
2015,07,18,08,47,18.20
2015,07,18,08,48,18.20
2015,07,18,08,49,18.20
2015,07,18,08,50,18.20
2015,07,18,08,51,18.10
2015,07,18,08,52,18.10
2015,07,18,08,53,18.10
2015,07,18,08,54,18.10
2015,07,18,08,55,18.10
2015,07,18,08,56,18.10
2015,07,18,08,57,18.10
2015,07,18,08,58,18.20
2015,07,18,08,59,18.20
2015,07,18,09,00,18.20
2015,07,18,09,01,18.10
2015,07,18,09,02,18.10
2015,07,18,09,03,18.10
2015,07,18,09,04,18.10
2015,07,18,09,05,18.10
2015,07,18,09,06,18.10
2015,07,18,09,07,18.20
2015,07,18,09,08,18.10
2015,07,18,09,09,18.10
2015,07,18,09,10,18.10
2015,07,18,09,11,18.10
2015,07,18,09,12,18.10
2015,07,18,09,13,18.10
2015,07,18,09,14,18.10
2015,07,18,09,15,18.10
2015,07,18,09,16,18.10
2015,07,18,09,17,18.00
2015,07,18,09,18,18.00
2015,07,18,09,19,18.00
2015,07,18,09,20,18.00
2015,07,18,09,21,18.00
2015,07,18,09,22,17.90
2015,07,18,09,23,17.90
2015,07,18,09,24,17.90
2015,07,18,09,25,17.90
2015,07,18,09,26,18.00
2015,07,18,09,27,18.00
2015,07,18,09,28,18.00
2015,07,18,09,29,17.90
2015,07,18,09,30,17.90
2015,07,18,09,31,17.90
2015,07,18,09,32,17.90
2015,07,18,09,33,17.90
2015,07,18,09,34,17.80
2015,07,18,09,35,17.90
2015,07,18,09,36,17.90
2015,07,18,09,37,17.80
2015,07,18,09,38,17.80
2015,07,18,09,39,17.80
2015,07,18,09,40,17.80
2015,07,18,09,41,17.90
2015,07,18,09,42,17.90
2015,07,18,09,43,18.00
2015,07,18,09,44,18.00
2015,07,18,09,45,18.10
2015,07,18,09,46,18.10
2015,07,18,09,47,18.10
2015,07,18,09,48,18.00
2015,07,18,09,49,18.00
2015,07,18,09,50,18.00
2015,07,18,09,51,18.00
2015,07,18,09,52,18.00
2015,07,18,09,53,18.00
2015,07,18,09,54,18.00
2015,07,18,09,55,18.00
2015,07,18,09,56,18.10
2015,07,18,09,57,18.10
2015,07,18,09,58,18.10
2015,07,18,09,59,18.20
2015,07,18,10,00,18.20
2015,07,18,10,01,18.20
2015,07,18,10,02,18.20
2015,07,18,10,03,18.30
2015,07,18,10,04,18.50
2015,07,18,10,05,18.60
2015,07,18,10,06,18.70
2015,07,18,10,07,18.90
2015,07,18,10,08,19.00
2015,07,18,10,09,19.10
2015,07,18,10,10,19.20
2015,07,18,10,11,19.20
2015,07,18,10,12,19.10
2015,07,18,10,13,19.00
2015,07,18,10,14,18.90
2015,07,18,10,15,18.90
2015,07,18,10,16,18.80
2015,07,18,10,17,18.80
2015,07,18,10,18,18.80
2015,07,18,10,19,18.70
2015,07,18,10,20,18.70
2015,07,18,10,21,18.80
2015,07,18,10,22,18.80
2015,07,18,10,23,18.80
2015,07,18,10,24,18.90
2015,07,18,10,25,18.90
2015,07,18,10,26,18.90
2015,07,18,10,27,18.90
2015,07,18,10,28,18.90
2015,07,18,10,29,19.00
2015,07,18,10,30,19.00
2015,07,18,10,31,19.10
2015,07,18,10,32,19.10
2015,07,18,10,33,19.20
2015,07,18,10,34,19.20
2015,07,18,10,35,19.20
2015,07,18,10,36,19.20
2015,07,18,10,37,19.30
2015,07,18,10,38,19.20
2015,07,18,10,39,19.20
2015,07,18,10,40,19.20
2015,07,18,10,41,19.10
2015,07,18,10,42,19.10
2015,07,18,10,43,19.00
2015,07,18,10,44,19.00
2015,07,18,10,45,18.90
2015,07,18,10,46,18.90
2015,07,18,10,47,18.80
2015,07,18,10,48,18.80
2015,07,18,10,49,18.80
2015,07,18,10,50,18.80
2015,07,18,10,51,18.70
2015,07,18,10,52,18.70
2015,07,18,10,53,18.80
2015,07,18,10,54,18.90
2015,07,18,10,55,19.00
2015,07,18,10,56,19.10
2015,07,18,10,57,19.30
2015,07,18,10,58,19.30
2015,07,18,10,59,19.40
2015,07,18,11,00,19.30
2015,07,18,11,01,19.30
2015,07,18,11,02,19.30
2015,07,18,11,03,19.30
2015,07,18,11,04,19.20
2015,07,18,11,05,19.10
2015,07,18,11,06,19.10
2015,07,18,11,07,19.10
2015,07,18,11,08,19.00
2015,07,18,11,09,18.90
2015,07,18,11,10,19.00
2015,07,18,11,11,19.00
2015,07,18,11,12,19.10
2015,07,18,11,13,19.10
2015,07,18,11,14,19.20
2015,07,18,11,15,19.30
2015,07,18,11,16,19.30
2015,07,18,11,17,19.30
2015,07,18,11,18,19.30
2015,07,18,11,19,19.40
2015,07,18,11,20,19.40
2015,07,18,11,21,19.30
2015,07,18,11,22,19.30
2015,07,18,11,23,19.30
2015,07,18,11,24,19.30
2015,07,18,11,25,19.30
2015,07,18,11,26,19.30
2015,07,18,11,27,19.20
2015,07,18,11,28,19.20
2015,07,18,11,29,19.10
2015,07,18,11,30,19.00
2015,07,18,11,31,19.00
2015,07,18,11,32,19.00
2015,07,18,11,33,19.10
2015,07,18,11,34,19.10
2015,07,18,11,35,19.20
2015,07,18,11,36,19.30
2015,07,18,11,37,19.30
2015,07,18,11,38,19.40
2015,07,18,11,39,19.40
2015,07,18,11,40,19.40
2015,07,18,11,41,19.50
2015,07,18,11,42,19.60
2015,07,18,11,43,19.60
2015,07,18,11,44,19.70
2015,07,18,11,45,19.70
2015,07,18,11,46,19.60
2015,07,18,11,47,19.60
2015,07,18,11,48,19.60
2015,07,18,11,49,19.70
2015,07,18,11,50,19.70
2015,07,18,11,51,19.70
2015,07,18,11,52,19.60
2015,07,18,11,53,19.60
2015,07,18,11,54,19.70
2015,07,18,11,55,19.60
2015,07,18,11,56,19.50
2015,07,18,11,57,19.40
2015,07,18,11,58,19.30
2015,07,18,11,59,19.20
2015,07,18,12,00,19.10
2015,07,18,12,01,19.00
2015,07,18,12,02,18.90
2015,07,18,12,03,18.90
2015,07,18,12,04,18.90
2015,07,18,12,05,18.90
2015,07,18,12,06,18.90
2015,07,18,12,07,19.00
2015,07,18,12,08,19.00
2015,07,18,12,09,19.10
2015,07,18,12,10,19.20
2015,07,18,12,11,19.30
2015,07,18,12,12,19.40
2015,07,18,12,13,19.50
2015,07,18,12,14,19.60
2015,07,18,12,15,19.60
2015,07,18,12,16,19.60
2015,07,18,12,17,19.70
2015,07,18,12,18,19.70
2015,07,18,12,19,19.80
2015,07,18,12,20,19.80
2015,07,18,12,21,19.80
2015,07,18,12,22,19.70
2015,07,18,12,23,19.60
2015,07,18,12,24,19.50
2015,07,18,12,25,19.40
2015,07,18,12,26,19.40
2015,07,18,12,27,19.40
2015,07,18,12,28,19.30
2015,07,18,12,29,19.30
2015,07,18,12,30,19.30
2015,07,18,12,31,19.20
2015,07,18,12,32,19.20
2015,07,18,12,33,19.10
2015,07,18,12,34,19.10
2015,07,18,12,35,19.10
2015,07,18,12,36,19.10
2015,07,18,12,37,19.20
2015,07,18,12,38,19.30
2015,07,18,12,39,19.40
2015,07,18,12,40,19.50
2015,07,18,12,41,19.60
2015,07,18,12,42,19.70
2015,07,18,12,43,19.60
2015,07,18,12,44,19.50
2015,07,18,12,45,19.40
2015,07,18,12,46,19.30
2015,07,18,12,47,19.20
2015,07,18,12,48,19.20
2015,07,18,12,49,19.10
2015,07,18,12,50,19.10
2015,07,18,12,51,19.20
2015,07,18,12,52,19.20
2015,07,18,12,53,19.10
2015,07,18,12,54,19.10
2015,07,18,12,55,19.10
2015,07,18,12,56,19.00
2015,07,18,12,57,19.00
2015,07,18,12,58,18.90
2015,07,18,12,59,19.00
2015,07,18,13,00,19.00
2015,07,18,13,01,19.00
2015,07,18,13,02,19.10
2015,07,18,13,03,19.20
2015,07,18,13,04,19.40
2015,07,18,13,05,19.50
2015,07,18,13,06,19.60
2015,07,18,13,07,19.70
2015,07,18,13,08,19.90
2015,07,18,13,09,20.00
2015,07,18,13,10,20.00
2015,07,18,13,11,20.00
2015,07,18,13,12,19.90
2015,07,18,13,13,19.80
2015,07,18,13,14,19.80
2015,07,18,13,15,19.80
2015,07,18,13,16,19.70
2015,07,18,13,17,19.70
2015,07,18,13,18,19.80
2015,07,18,13,19,19.90
2015,07,18,13,20,19.90
2015,07,18,13,21,20.00
2015,07,18,13,22,19.90
2015,07,18,13,23,19.90
2015,07,18,13,24,19.90
2015,07,18,13,25,19.90
2015,07,18,13,26,20.00
2015,07,18,13,27,20.00
2015,07,18,13,28,20.00
2015,07,18,13,29,20.00
2015,07,18,13,30,20.00
2015,07,18,13,31,20.00
2015,07,18,13,32,20.10
2015,07,18,13,33,20.10
2015,07,18,13,34,20.10
2015,07,18,13,35,20.10
2015,07,18,13,36,20.10
2015,07,18,13,37,20.00
2015,07,18,13,38,20.00
2015,07,18,13,39,19.90
2015,07,18,13,40,19.90
2015,07,18,13,41,19.90
2015,07,18,13,42,20.00
2015,07,18,13,43,20.10
2015,07,18,13,44,20.20
2015,07,18,13,45,20.30
2015,07,18,13,46,20.40
2015,07,18,13,47,20.50
2015,07,18,13,48,20.60
2015,07,18,13,49,20.70
2015,07,18,13,50,20.80
2015,07,18,13,51,21.00
2015,07,18,13,52,21.20
2015,07,18,13,53,21.30
2015,07,18,13,54,21.40
2015,07,18,13,55,21.50
2015,07,18,13,56,21.40
2015,07,18,13,57,21.30
2015,07,18,13,58,21.10
2015,07,18,13,59,21.00
2015,07,18,14,00,20.90
2015,07,18,14,01,20.80
2015,07,18,14,02,20.70
2015,07,18,14,03,20.70
2015,07,18,14,04,20.60
2015,07,18,14,05,20.60
2015,07,18,14,06,20.60
2015,07,18,14,07,20.50
2015,07,18,14,08,20.50
2015,07,18,14,09,20.50
2015,07,18,14,10,20.60
2015,07,18,14,11,20.60
2015,07,18,14,12,20.60
2015,07,18,14,13,20.70
2015,07,18,14,14,20.80
2015,07,18,14,15,20.80
2015,07,18,14,16,20.90
2015,07,18,14,17,20.90
2015,07,18,14,18,21.00
2015,07,18,14,19,21.00
2015,07,18,14,20,21.10
2015,07,18,14,21,21.10
2015,07,18,14,22,21.20
2015,07,18,14,23,21.20
2015,07,18,14,24,21.30
2015,07,18,14,25,21.30
2015,07,18,14,26,21.30
2015,07,18,14,27,21.30
2015,07,18,14,28,21.30
2015,07,18,14,29,21.30
2015,07,18,14,30,21.30
2015,07,18,14,31,21.30
2015,07,18,14,32,21.30
2015,07,18,14,33,21.30
2015,07,18,14,34,21.40
2015,07,18,14,35,21.60
2015,07,18,14,36,21.60
2015,07,18,14,37,21.70
2015,07,18,14,38,21.70
2015,07,18,14,39,21.70
2015,07,18,14,40,21.70
2015,07,18,14,41,21.70
2015,07,18,14,42,21.70
2015,07,18,14,43,21.70
2015,07,18,14,44,21.70
2015,07,18,14,45,21.70
2015,07,18,14,46,21.70
2015,07,18,14,47,21.70
2015,07,18,14,48,21.70
2015,07,18,14,49,21.80
2015,07,18,14,50,21.80
2015,07,18,14,51,21.80
2015,07,18,14,52,21.80
2015,07,18,14,53,21.80
2015,07,18,14,54,21.80
2015,07,18,14,55,21.80
2015,07,18,14,56,21.80
2015,07,18,14,57,21.80
2015,07,18,14,58,21.80
2015,07,18,14,59,21.70
2015,07,18,15,00,21.70
2015,07,18,15,01,21.60
2015,07,18,15,02,21.60
2015,07,18,15,03,21.60
2015,07,18,15,04,21.70
2015,07,18,15,05,21.70
2015,07,18,15,06,21.80
2015,07,18,15,07,21.80
2015,07,18,15,08,21.90
2015,07,18,15,09,21.90
2015,07,18,15,10,22.00
2015,07,18,15,11,22.10
2015,07,18,15,12,22.20
2015,07,18,15,13,22.30
2015,07,18,15,14,22.40
2015,07,18,15,15,22.50
2015,07,18,15,16,22.60
2015,07,18,15,17,22.60
2015,07,18,15,18,22.70
2015,07,18,15,19,22.70
2015,07,18,15,20,22.80
2015,07,18,15,21,22.80
2015,07,18,15,22,22.80
2015,07,18,15,23,22.80
2015,07,18,15,24,22.90
2015,07,18,15,25,22.90
2015,07,18,15,26,22.90
2015,07,18,15,27,23.00
2015,07,18,15,28,22.90
2015,07,18,15,29,22.90
2015,07,18,15,30,22.90
2015,07,18,15,31,22.90
2015,07,18,15,32,22.90
2015,07,18,15,33,23.00
2015,07,18,15,34,23.10
2015,07,18,15,35,23.20
2015,07,18,15,36,23.30
2015,07,18,15,37,23.40
2015,07,18,15,38,23.40
2015,07,18,15,39,23.40
2015,07,18,15,40,23.40
2015,07,18,15,41,23.40
2015,07,18,15,42,23.50
2015,07,18,15,43,23.60
2015,07,18,15,44,23.60
2015,07,18,15,45,23.70
2015,07,18,15,46,23.70
2015,07,18,15,47,23.80
2015,07,18,15,48,23.90
2015,07,18,15,49,23.90
2015,07,18,15,50,23.90
2015,07,18,15,51,23.90
2015,07,18,15,52,23.80
2015,07,18,15,53,23.70
2015,07,18,15,54,23.70
2015,07,18,15,55,23.70
2015,07,18,15,56,23.70
2015,07,18,15,57,23.80
2015,07,18,15,58,23.80
2015,07,18,15,59,23.80
2015,07,18,16,00,23.90
2015,07,18,16,01,24.00
2015,07,18,16,02,24.00
2015,07,18,16,03,24.10
2015,07,18,16,04,24.10
2015,07,18,16,05,24.20
2015,07,18,16,06,24.20
2015,07,18,16,07,24.30
2015,07,18,16,08,24.30
2015,07,18,16,09,24.30
2015,07,18,16,10,24.30
2015,07,18,16,11,24.30
2015,07,18,16,12,24.20
2015,07,18,16,13,24.00
2015,07,18,16,14,23.80
2015,07,18,16,15,23.70
2015,07,18,16,16,23.60
2015,07,18,16,17,23.50
2015,07,18,16,18,23.50
2015,07,18,16,19,23.40
2015,07,18,16,20,23.40
2015,07,18,16,21,23.30
2015,07,18,16,22,23.30
2015,07,18,16,23,23.40
2015,07,18,16,24,23.40
2015,07,18,16,25,23.50
2015,07,18,16,26,23.60
2015,07,18,16,27,23.70
2015,07,18,16,28,23.80
2015,07,18,16,29,23.80
2015,07,18,16,30,23.80
2015,07,18,16,31,23.80
2015,07,18,16,32,23.90
2015,07,18,16,33,23.90
2015,07,18,16,34,24.00
2015,07,18,16,35,24.10
2015,07,18,16,36,24.20
2015,07,18,16,37,24.10
2015,07,18,16,38,24.10
2015,07,18,16,39,24.00
2015,07,18,16,40,23.90
2015,07,18,16,41,23.70
2015,07,18,16,42,23.70
2015,07,18,16,43,23.70
2015,07,18,16,44,23.70
2015,07,18,16,45,23.70
2015,07,18,16,46,23.70
2015,07,18,16,47,23.70
2015,07,18,16,48,23.70
2015,07,18,16,49,23.80
2015,07,18,16,50,23.80
2015,07,18,16,51,23.90
2015,07,18,16,52,24.00
2015,07,18,16,53,24.00
2015,07,18,16,54,24.10
2015,07,18,16,55,24.20
2015,07,18,16,56,24.30
2015,07,18,16,57,24.30
2015,07,18,16,58,24.40
2015,07,18,16,59,24.40
2015,07,18,17,00,24.50
2015,07,18,17,01,24.70
2015,07,18,17,02,24.80
2015,07,18,17,03,24.80
2015,07,18,17,04,24.90
2015,07,18,17,05,25.00
2015,07,18,17,06,25.00
2015,07,18,17,07,25.10
2015,07,18,17,08,25.20
2015,07,18,17,09,25.20
2015,07,18,17,10,25.10
2015,07,18,17,11,25.10
2015,07,18,17,12,25.00
2015,07,18,17,13,24.90
2015,07,18,17,14,24.80
2015,07,18,17,15,24.60
2015,07,18,17,16,24.60
2015,07,18,17,17,24.60
2015,07,18,17,18,24.60
2015,07,18,17,19,24.60
2015,07,18,17,20,24.60
2015,07,18,17,21,24.50
2015,07,18,17,22,24.50
2015,07,18,17,23,24.40
2015,07,18,17,24,24.30
2015,07,18,17,25,24.30
2015,07,18,17,26,24.20
2015,07,18,17,27,24.30
2015,07,18,17,28,24.30
2015,07,18,17,29,24.40
2015,07,18,17,30,24.40
2015,07,18,17,31,24.50
2015,07,18,17,32,24.50
2015,07,18,17,33,24.60
2015,07,18,17,34,24.70
2015,07,18,17,35,24.70
2015,07,18,17,36,24.80
2015,07,18,17,37,24.80
2015,07,18,17,38,24.80
2015,07,18,17,39,24.90
2015,07,18,17,40,25.00
2015,07,18,17,41,25.00
2015,07,18,17,42,25.10
2015,07,18,17,43,25.10
2015,07,18,17,44,25.10
2015,07,18,17,45,25.10
2015,07,18,17,46,25.00
2015,07,18,17,47,24.90
2015,07,18,17,48,24.90
2015,07,18,17,49,24.90
2015,07,18,17,50,24.80
2015,07,18,17,51,24.80
2015,07,18,17,52,24.70
2015,07,18,17,53,24.70
2015,07,18,17,54,24.60
2015,07,18,17,55,24.50
2015,07,18,17,56,24.50
2015,07,18,17,57,24.40
2015,07,18,17,58,24.30
2015,07,18,17,59,24.30
2015,07,18,18,00,24.30
2015,07,18,18,01,24.40
2015,07,18,18,02,24.40
2015,07,18,18,03,24.40
2015,07,18,18,04,24.50
2015,07,18,18,05,24.50
2015,07,18,18,06,24.40
2015,07,18,18,07,24.30
2015,07,18,18,08,24.30
2015,07,18,18,09,24.20
2015,07,18,18,10,24.10
2015,07,18,18,11,24.10
2015,07,18,18,12,24.10
2015,07,18,18,13,24.20
2015,07,18,18,14,24.20